EW3804 Weather Reports


Display with metric or nautical units.
time (UTC)temp
F
wind
direction
speed
MPH
gust
MPH
rain 1hr
in
rain 24hr
in
rain mn
in
humidity
%
barometer
mb
20260508124528 62 141 0.0 0.0 0.00 0.00 0.00 87 1006.8
20260508123023 0 0.0 0.0 0.00 0.00 0.00 1006.5
20260508121516 0 0.0 0.0 0.00 0.00 0.00 1006.5
20260508120011 0 0.0 0.0 0.00 0.00 0.00 1007.0
20260508114506 0 0.0 0.0 0.00 0.00 0.00 1007.0
20260508113002 0 0.0 0.0 0.00 0.00 0.00 1007.1
20260508111601 0 0.0 0.0 0.00 0.00 0.00 1007.0
20260508104551 0 0.0 0.0 0.00 0.00 0.00 1006.9
20260508103049 0 0.0 0.0 0.00 0.00 0.00 1007.1
20260508101542 0 0.0 0.0 0.00 0.00 0.00 1007.2
20260508100056 0 0.0 0.0 0.00 0.00 0.00 1007.8
20260508094540 58 321 0.0 0.0 0.00 0.00 0.00 94 1008.2
20260508093037 58 321 0.0 0.0 0.00 0.00 0.00 94 1008.1
20260508091533 57 321 0.0 0.0 0.00 0.00 0.00 94 1007.9
20260508090037 56 303 0.0 1.0 0.00 0.00 0.00 94 1007.9
20260508084530 56 319 0.0 1.0 0.00 0.00 0.00 94 1007.4
20260508083029 56 23 0.0 2.0 0.00 0.00 0.00 94 1007.1
20260508081528 56 314 0.0 2.0 0.00 0.00 0.00 93 1007.1
20260508080031 56 314 0.0 0.0 0.00 0.00 0.00 93 1007.3
20260508074524 56 314 0.0 0.0 0.00 0.00 0.00 93 1007.5
20260508073022 56 315 1.0 2.0 0.00 0.00 0.00 92 1007.9
20260508071521 57 314 0.0 0.0 0.00 0.00 0.00 92 1007.7
20260508070019 58 314 0.0 0.0 0.00 0.00 0.00 92 1007.8
20260508064516 57 314 0.0 1.0 0.00 0.00 0.00 92 1008.0
20260508063015 58 314 0.0 1.0 0.00 0.00 0.00 93 1008.1
20260508061513 58 314 0.0 0.0 0.00 0.00 0.00 94 1008.2
20260508060019 58 314 0.0 0.0 0.00 0.00 0.00 93 1008.0
20260508054518 58 314 0.0 0.0 0.00 0.00 0.00 93 1008.0
20260508053008 58 314 0.0 1.0 0.00 0.00 0.00 93 1008.0
20260508051505 58 322 1.0 2.0 0.00 0.00 0.00 93 1008.4
20260508050003 58 266 0.0 2.0 0.00 0.00 0.00 93 1008.8
20260508044558 59 266 1.0 2.0 0.00 0.00 0.00 91 1008.5
20260508043059 61 266 0.0 0.0 0.00 0.00 0.00 91 1008.3
20260508041552 61 266 0.0 1.0 0.00 0.00 0.00 90 1008.4
20260508040045 61 266 0.0 1.0 0.00 0.00 0.00 91 1008.5
20260508034547 61 266 0.0 1.0 0.00 0.00 0.00 90 1008.7
20260508033036 61 266 0.0 1.0 0.00 0.00 0.00 91 1008.4
20260508031534 61 266 0.0 1.0 0.00 0.00 0.00 91 1007.9
20260508030027 61 266 0.0 1.0 0.00 0.00 0.00 92 1008.0
20260508024525 61 266 0.0 1.0 0.00 0.00 0.00 92 1007.6
20260508023018 61 266 0.0 2.0 0.00 0.00 0.00 92 1007.6
20260508020009 62 266 0.0 0.0 0.00 0.00 0.00 91 1007.6
20260508014505 62 266 0.0 0.0 0.00 0.00 0.00 89 1007.5
20260508013104 63 266 0.0 0.0 0.00 0.00 0.00 85 1007.5
20260508011610 64 266 0.0 1.0 0.00 0.00 0.00 88 1007.8
20260508004549 64 266 0.0 1.0 0.00 0.00 0.00 87 1008.1
20260508003048 63 256 0.0 3.0 0.00 0.00 0.00 87 1008.6
20260508001541 64 53 0.0 2.0 0.00 0.00 0.00 85 1007.2
20260508000036 65 308 0.0 2.0 0.00 0.00 0.00 77 1008.1
20260507234532 65 124 0.0 3.0 0.00 0.00 0.00 74 1007.8
20260507233028 66 141 0.0 2.0 0.00 0.00 0.00 73 1008.2
20260507231523 67 303 0.0 1.0 0.00 0.00 0.00 73 1008.4
20260507230024 67 38 0.0 4.0 0.00 0.00 0.00 72 1008.2
20260507224516 67 329 0.0 3.0 0.00 0.00 0.00 70 1008.9
20260507223010 67 98 0.0 3.0 0.00 0.00 0.00 69 1008.4
20260507221508 67 113 0.0 1.0 0.00 0.00 0.00 66 1008.8
20260507220003 67 300 0.0 1.0 0.00 0.00 0.00 70 1008.9
20260507214556 66 314 0.0 2.0 0.00 0.00 0.00 71 1009.0
20260507213052 66 131 0.0 1.0 0.00 0.00 0.00 70 1009.5
20260507211553 66 141 0.0 3.0 0.00 0.00 0.00 68 1009.5
20260507210043 66 46 0.0 5.0 0.00 0.00 0.00 70 1008.6
20260507204539 67 52 0.0 3.0 0.00 0.00 0.00 66 1009.0
20260507203036 67 79 0.0 2.0 0.00 0.00 0.00 64 1009.8
20260507201529 68 357 1.0 5.0 0.00 0.00 0.00 66 1009.7
20260507200025 68 39 0.0 7.0 0.00 0.00 0.00 63 1010.1
20260507194527 68 11 1.0 8.0 0.00 0.00 0.00 66 1010.0
20260507193015 67 359 2.0 8.0 0.00 0.00 0.00 66 1010.0
20260507191511 66 38 3.0 6.0 0.00 0.00 0.00 66 1010.5
20260507190010 66 296 0.0 4.0 0.00 0.00 0.00 68 1010.7
20260507184501 66 33 2.0 8.0 0.00 0.00 0.00 66 1010.8
20260507183057 66 11 2.0 11.0 0.00 0.00 0.00 66 1010.6
20260507181553 65 37 6.0 10.0 0.00 0.00 0.00 68 1010.7
20260507180057 65 40 6.0 10.0 0.00 0.00 0.00 69 1010.7
20260507174544 64 27 5.0 10.0 0.00 0.00 0.00 67 1011.2
20260507173045 65 34 3.0 7.0 0.00 0.00 0.00 66 1011.9
20260507171534 64 58 1.0 8.0 0.00 0.00 0.00 70 1012.4
20260507170030 63 19 5.0 10.0 0.00 0.00 0.00 69 1011.8
20260507164528 62 25 6.0 11.0 0.00 0.00 0.00 71 1012.0
20260507163020 62 27 6.0 11.0 0.00 0.00 0.00 69 1012.0
20260507161516 62 61 7.0 14.0 0.00 0.00 0.00 69 1011.6
20260507160032 62 15 9.0 15.0 0.00 0.00 0.00 70 1011.8
20260507154507 61 48 11.0 16.0 0.00 0.00 0.00 70 1011.5
20260507153004 61 33 7.0 11.0 0.00 0.00 0.00 71 1012.0
20260507151558 61 7 7.0 12.0 0.00 0.00 0.00 72 1012.2
20260507150054 60 356 7.0 12.0 0.00 0.00 0.00 73 1012.2
20260507144552 59 32 8.0 14.0 0.00 0.00 0.00 75 1012.0
20260507143049 58 19 8.0 16.0 0.00 0.00 0.00 78 1011.6
20260507141544 58 31 6.0 12.0 0.00 0.00 0.00 82 1011.9
20260507140037 57 315 4.0 11.0 0.00 0.00 0.00 84 1012.4
20260507134532 56 349 5.0 10.0 0.00 0.00 0.00 86 1012.5
20260507133027 56 22 3.0 14.0 0.00 0.00 0.00 87 1012.7
20260507131522 56 350 6.0 11.0 0.00 0.00 0.00 87 1012.6
20260507130025 56 316 6.0 14.0 0.00 0.00 0.00 88 1012.5